Time,TemperatureF,DewpointF,PressureIn,WindDirection,WindDirectionDegrees,WindSpeedMPH,WindSpeedGustMPH,Humidity,HourlyPrecipIn,Conditions,Clouds,dailyrainin,SoftwareType,DateUTC
2013-05-17 00:00:00,67.4,42.2,29.80,WNW,282,0.0,0.0,40,0.00,,,0.00,Wunderground v.1.15,2013-05-17 04:00:00,
2013-05-17 00:03:00,67.4,42.0,29.81,WNW,282,0.0,1.0,40,0.00,,,0.00,weatherlink.com 1.10,2013-05-17 04:03:00,
2013-05-17 00:10:00,67.4,42.2,29.81,WNW,283,0.0,0.0,40,0.00,,,0.00,Wunderground v.1.15,2013-05-17 04:10:00,
2013-05-17 00:18:00,67.5,42.0,29.82,WNW,283,0.0,1.0,40,0.00,,,0.00,weatherlink.com 1.10,2013-05-17 04:18:00,
2013-05-17 00:30:00,67.5,41.7,29.82,WNW,283,0.0,0.0,39,0.00,,,0.00,Wunderground v.1.15,2013-05-17 04:30:00,
2013-05-17 00:33:00,67.4,42.0,29.82,WNW,283,0.0,1.0,40,0.00,,,0.00,weatherlink.com 1.10,2013-05-17 04:33:00,
2013-05-17 00:40:00,67.3,42.1,29.83,WNW,283,0.0,0.0,40,0.00,,,0.00,Wunderground v.1.15,2013-05-17 04:40:00,
2013-05-17 00:48:00,67.0,42.0,29.83,WNW,284,0.0,4.0,41,0.00,,,0.00,weatherlink.com 1.10,2013-05-17 04:48:00,
2013-05-17 01:00:00,66.7,42.2,29.83,WNW,284,0.0,0.0,41,0.00,,,0.00,Wunderground v.1.15,2013-05-17 05:00:00,
2013-05-17 01:10:00,66.3,42.5,29.83,WNW,284,0.0,0.0,42,0.00,,,0.00,Wunderground v.1.15,2013-05-17 05:10:00,
2013-05-17 01:19:00,66.0,41.0,29.84,WNW,288,0.0,3.0,41,0.00,,,0.00,weatherlink.com 1.10,2013-05-17 05:19:00,
2013-05-17 01:30:00,65.6,41.3,29.84,WNW,288,0.0,1.0,41,0.00,,,0.00,Wunderground v.1.15,2013-05-17 05:30:00,
2013-05-17 01:40:00,65.2,41.5,29.85,WNW,290,0.0,0.0,42,0.00,,,0.00,Wunderground v.1.15,2013-05-17 05:40:00,
2013-05-17 01:49:00,64.5,41.0,29.85,WNW,290,0.0,3.0,43,0.00,,,0.00,weatherlink.com 1.10,2013-05-17 05:49:00,
2013-05-17 02:00:00,63.9,41.5,29.85,WNW,290,0.0,0.0,44,0.00,,,0.00,Wunderground v.1.15,2013-05-17 06:00:00,
2013-05-17 02:10:00,63.4,41.7,29.85,WNW,290,0.0,0.0,45,0.00,,,0.00,Wunderground v.1.15,2013-05-17 06:10:00,
2013-05-17 02:19:00,63.0,41.0,29.85,NW,319,3.0,7.0,44,0.00,,,0.00,weatherlink.com 1.10,2013-05-17 06:19:00,
2013-05-17 02:30:00,62.7,39.3,29.85,WNW,302,1.0,3.0,42,0.00,,,0.00,Wunderground v.1.15,2013-05-17 06:30:00,
2013-05-17 02:40:00,62.6,39.2,29.86,NW,306,1.0,1.0,42,0.00,,,0.00,Wunderground v.1.15,2013-05-17 06:40:00,
2013-05-17 02:49:00,62.3,39.0,29.87,NW,306,2.0,4.0,42,0.00,,,0.00,weatherlink.com 1.10,2013-05-17 06:49:00,
2013-05-17 03:00:00,62.1,39.3,29.87,NW,315,1.0,1.0,43,0.00,,,0.00,Wunderground v.1.15,2013-05-17 07:00:00,
2013-05-17 03:10:00,62.0,39.8,29.87,NW,324,1.0,1.0,44,0.00,,,0.00,Wunderground v.1.15,2013-05-17 07:10:00,
2013-05-17 03:19:00,61.7,39.0,29.87,NW,325,0.0,3.0,44,0.00,,,0.00,weatherlink.com 1.10,2013-05-17 07:19:00,
2013-05-17 03:30:00,61.0,40.1,29.88,NW,325,0.0,0.0,46,0.00,,,0.00,Wunderground v.1.15,2013-05-17 07:30:00,
2013-05-17 03:40:00,60.4,40.6,29.89,NW,307,0.0,0.0,48,0.00,,,0.00,Wunderground v.1.15,2013-05-17 07:40:00,
2013-05-17 03:49:00,59.9,40.0,29.89,NW,307,0.0,2.0,49,0.00,,,0.00,weatherlink.com 1.10,2013-05-17 07:49:00,
2013-05-17 04:00:00,59.3,41.2,29.89,WNW,289,0.0,0.0,51,0.00,,,0.00,Wunderground v.1.15,2013-05-17 08:00:00,
2013-05-17 04:10:00,59.1,41.0,29.89,WNW,290,0.0,1.0,51,0.00,,,0.00,Wunderground v.1.15,2013-05-17 08:10:00,
2013-05-17 04:19:00,59.0,41.0,29.89,NNW,328,0.0,10.0,52,0.00,,,0.00,weatherlink.com 1.10,2013-05-17 08:19:00,
2013-05-17 04:30:00,58.7,41.6,29.90,WNW,300,0.0,1.0,53,0.00,,,0.00,Wunderground v.1.15,2013-05-17 08:30:00,
2013-05-17 04:40:00,58.4,41.3,29.91,WNW,299,0.0,0.0,53,0.00,,,0.00,Wunderground v.1.15,2013-05-17 08:40:00,
2013-05-17 04:49:00,58.2,41.0,29.91,NNW,343,0.0,5.0,54,0.00,,,0.00,weatherlink.com 1.10,2013-05-17 08:49:00,
2013-05-17 05:00:00,58.2,42.1,29.92,NW,321,0.0,0.0,55,0.00,,,0.00,Wunderground v.1.15,2013-05-17 09:00:00,
2013-05-17 05:10:00,58.0,41.9,29.94,NW,321,0.0,0.0,55,0.00,,,0.00,Wunderground v.1.15,2013-05-17 09:10:00,
2013-05-17 05:19:00,57.7,42.0,29.93,NW,322,0.0,3.0,56,0.00,,,0.00,weatherlink.com 1.10,2013-05-17 09:19:00,
2013-05-17 05:30:00,57.3,42.2,29.94,NW,321,0.0,1.0,57,0.00,,,0.00,Wunderground v.1.15,2013-05-17 09:30:00,
2013-05-17 05:35:00,57.1,42.0,29.95,NW,321,0.0,3.0,57,0.00,,,0.00,weatherlink.com 1.10,2013-05-17 09:35:00,
2013-05-17 05:40:00,56.9,42.3,29.95,NW,321,0.0,0.0,58,0.00,,,0.00,Wunderground v.1.15,2013-05-17 09:40:00,
2013-05-17 05:50:00,56.8,42.2,29.95,NW,322,0.0,0.0,58,0.00,,,0.00,Wunderground v.1.15,2013-05-17 09:50:00,
2013-05-17 06:00:00,56.5,42.3,29.95,NW,322,0.0,0.0,59,0.00,,,0.00,Wunderground v.1.15,2013-05-17 10:00:00,
2013-05-17 06:10:00,56.3,42.6,29.96,NW,319,0.0,0.0,60,0.00,,,0.00,Wunderground v.1.15,2013-05-17 10:10:00,
2013-05-17 06:20:00,56.1,42.8,29.96,NW,321,0.0,0.0,61,0.00,,,0.00,Wunderground v.1.15,2013-05-17 10:20:00,
2013-05-17 06:30:00,56.0,43.2,29.97,NW,321,0.0,0.0,62,0.00,,,0.00,Wunderground v.1.15,2013-05-17 10:30:00,
2013-05-17 06:35:00,55.9,44.0,29.97,NW,320,0.0,1.0,64,0.00,,,0.00,weatherlink.com 1.10,2013-05-17 10:35:00,
2013-05-17 06:50:00,55.7,44.0,29.98,NW,319,0.0,2.0,64,0.00,,,0.00,weatherlink.com 1.10,2013-05-17 10:50:00,
2013-05-17 07:00:00,55.7,44.1,29.98,NW,311,0.0,0.0,65,0.00,,,0.00,Wunderground v.1.15,2013-05-17 11:00:00,
2013-05-17 07:10:00,55.8,44.2,29.99,WNW,302,0.0,0.0,65,0.00,,,0.00,Wunderground v.1.15,2013-05-17 11:10:00,
2013-05-17 07:20:00,56.0,44.0,29.99,West,265,0.0,4.0,64,0.00,,,0.00,weatherlink.com 1.10,2013-05-17 11:20:00,
2013-05-17 07:30:00,56.1,44.1,30.00,WNW,283,0.0,0.0,64,0.00,,,0.00,Wunderground v.1.15,2013-05-17 11:30:00,
2013-05-17 07:36:00,56.2,44.0,30.01,West,269,0.0,4.0,64,0.00,,,0.00,weatherlink.com 1.10,2013-05-17 11:36:00,
2013-05-17 07:50:00,56.4,43.0,30.01,WNW,286,0.0,6.0,62,0.00,,,0.00,weatherlink.com 1.10,2013-05-17 11:50:00,
2013-05-17 08:00:00,56.8,44.3,30.01,WNW,295,1.0,1.0,63,0.00,,,0.00,Wunderground v.1.15,2013-05-17 12:00:00,
2013-05-17 08:05:00,57.0,44.0,30.01,West,281,0.0,3.0,63,0.00,,,0.00,weatherlink.com 1.10,2013-05-17 12:05:00,
2013-05-17 08:20:00,57.5,44.0,30.01,North,5,0.0,4.0,61,0.00,,,0.00,weatherlink.com 1.10,2013-05-17 12:20:00,
2013-05-17 08:30:00,57.9,44.1,30.01,WSW,238,0.0,0.0,60,0.00,,,0.00,Wunderground v.1.15,2013-05-17 12:30:00,
2013-05-17 08:35:00,58.1,45.0,30.01,WSW,240,0.0,1.0,61,0.00,,,0.00,weatherlink.com 1.10,2013-05-17 12:35:00,
2013-05-17 08:50:00,58.5,44.0,30.02,WNW,296,0.0,2.0,58,0.00,,,0.00,weatherlink.com 1.10,2013-05-17 12:50:00,
2013-05-17 09:00:00,58.8,43.6,30.02,North,5,1.0,1.0,57,0.00,,,0.00,Wunderground v.1.15,2013-05-17 13:00:00,
2013-05-17 09:05:00,58.7,44.0,30.02,WNW,302,0.0,5.0,58,0.00,,,0.00,weatherlink.com 1.10,2013-05-17 13:05:00,
2013-05-17 09:20:00,58.8,44.0,30.02,WNW,299,0.0,0.0,58,0.00,,,0.00,Wunderground v.1.15,2013-05-17 13:20:00,
2013-05-17 09:30:00,59.0,43.8,30.03,WNW,292,1.0,1.0,57,0.00,,,0.00,Wunderground v.1.15,2013-05-17 13:30:00,
2013-05-17 09:36:00,59.3,43.0,30.03,West,269,0.0,5.0,56,0.00,,,0.00,weatherlink.com 1.10,2013-05-17 13:36:00,
2013-05-17 09:50:00,59.5,43.3,30.03,West,263,0.0,0.0,55,0.00,,,0.00,Wunderground v.1.15,2013-05-17 13:50:00,
2013-05-17 10:00:00,59.6,42.9,30.04,WNW,303,0.0,0.0,54,0.00,,,0.00,Wunderground v.1.15,2013-05-17 14:00:00,
2013-05-17 10:06:00,59.7,43.0,30.04,WNW,302,0.0,3.0,55,0.00,,,0.00,weatherlink.com 1.10,2013-05-17 14:06:00,
2013-05-17 10:20:00,59.9,43.2,30.03,NW,319,0.0,0.0,54,0.00,,,0.00,Wunderground v.1.15,2013-05-17 14:20:00,
2013-05-17 10:30:00,59.9,42.7,30.04,North,360,0.0,0.0,53,0.00,,,0.00,Wunderground v.1.15,2013-05-17 14:30:00,
2013-05-17 10:36:00,60.0,43.0,30.05,West,265,0.0,5.0,54,0.00,,,0.00,weatherlink.com 1.10,2013-05-17 14:36:00,
2013-05-17 10:50:00,60.4,42.7,30.05,West,263,0.0,0.0,52,0.00,,,0.00,Wunderground v.1.15,2013-05-17 14:50:00,
2013-05-17 11:00:00,60.7,43.5,30.05,West,263,0.0,1.0,53,0.00,,,0.00,Wunderground v.1.15,2013-05-17 15:00:00,
2013-05-17 11:07:00,60.7,44.0,30.05,WNW,284,0.0,6.0,54,0.00,,,0.00,weatherlink.com 1.10,2013-05-17 15:07:00,
2013-05-17 11:20:00,60.7,43.9,30.05,West,262,1.0,1.0,54,0.00,,,0.00,Wunderground v.1.15,2013-05-17 15:20:00,
2013-05-17 11:30:00,61.1,43.8,30.06,West,265,0.0,0.0,53,0.00,,,0.00,Wunderground v.1.15,2013-05-17 15:30:00,
2013-05-17 11:36:00,61.3,44.0,30.05,West,273,0.0,4.0,53,0.00,,,0.00,weatherlink.com 1.10,2013-05-17 15:36:00,
2013-05-17 11:50:00,61.7,43.9,30.06,WNW,296,0.0,1.0,52,0.00,,,0.00,Wunderground v.1.15,2013-05-17 15:50:00,
2013-05-17 12:00:00,62.0,44.2,30.06,West,277,1.0,1.0,52,0.00,,,0.00,Wunderground v.1.15,2013-05-17 16:00:00,
2013-05-17 12:07:00,62.1,43.0,30.06,West,275,0.0,4.0,50,0.00,,,0.00,weatherlink.com 1.10,2013-05-17 16:07:00,
2013-05-17 12:20:00,62.5,43.6,30.05,WNW,289,0.0,0.0,50,0.00,,,0.00,Wunderground v.1.15,2013-05-17 16:20:00,
2013-05-17 12:30:00,63.2,43.7,30.06,WNW,286,0.0,0.0,49,0.00,,,0.00,Wunderground v.1.15,2013-05-17 16:30:00,
2013-05-17 12:37:00,63.6,43.0,30.05,WNW,285,0.0,4.0,48,0.00,,,0.00,weatherlink.com 1.10,2013-05-17 16:37:00,
2013-05-17 12:50:00,64.0,42.8,30.06,WNW,303,1.0,1.0,46,0.00,,,0.00,Wunderground v.1.15,2013-05-17 16:50:00,
2013-05-17 13:00:00,64.2,44.1,30.06,WNW,303,0.0,0.0,48,0.00,,,0.00,Wunderground v.1.15,2013-05-17 17:00:00,
2013-05-17 13:07:00,64.3,43.0,30.06,WNW,303,0.0,2.0,46,0.00,,,0.00,weatherlink.com 1.10,2013-05-17 17:07:00,
2013-05-17 13:20:00,65.0,43.1,30.06,NNE,20,1.0,1.0,45,0.00,,,0.00,Wunderground v.1.15,2013-05-17 17:20:00,
2013-05-17 13:30:00,65.2,43.9,30.05,West,279,0.0,0.0,46,0.00,,,0.00,Wunderground v.1.15,2013-05-17 17:30:00,
2013-05-17 13:37:00,65.8,44.0,30.05,West,264,3.0,6.0,46,0.00,,,0.00,weatherlink.com 1.10,2013-05-17 17:37:00,
2013-05-17 13:50:00,66.8,43.6,30.05,SW,229,1.0,3.0,43,0.00,,,0.00,Wunderground v.1.15,2013-05-17 17:50:00,
2013-05-17 14:00:00,67.2,43.3,30.05,NW,315,2.0,2.0,42,0.00,,,0.00,Wunderground v.1.15,2013-05-17 18:00:00,
2013-05-17 14:07:00,68.0,45.0,30.05,NW,315,2.0,4.0,43,0.00,,,0.00,weatherlink.com 1.10,2013-05-17 18:07:00,
2013-05-17 14:20:00,69.5,43.4,30.05,West,273,1.0,1.0,39,0.00,,,0.00,Wunderground v.1.15,2013-05-17 18:20:00,
2013-05-17 14:30:00,69.7,44.9,30.05,NNW,346,1.0,1.0,41,0.00,,,0.00,Wunderground v.1.15,2013-05-17 18:30:00,
2013-05-17 14:38:00,69.3,43.0,30.05,NNE,27,2.0,6.0,39,0.00,,,0.00,weatherlink.com 1.10,2013-05-17 18:38:00,
2013-05-17 14:50:00,70.0,43.2,30.05,West,259,0.0,1.0,38,0.00,,,0.00,Wunderground v.1.15,2013-05-17 18:50:00,
2013-05-17 15:00:00,70.4,42.9,30.05,WSW,250,1.0,1.0,37,0.00,,,0.00,Wunderground v.1.15,2013-05-17 19:00:00,
2013-05-17 15:08:00,70.4,43.0,30.05,NNE,32,3.0,6.0,37,0.00,,,0.00,weatherlink.com 1.10,2013-05-17 19:08:00,
2013-05-17 15:20:00,70.3,44.2,30.04,West,269,1.0,1.0,39,0.00,,,0.00,Wunderground v.1.15,2013-05-17 19:20:00,
2013-05-17 15:30:00,71.1,42.8,30.04,WSW,244,1.0,1.0,36,0.00,,,0.00,Wunderground v.1.15,2013-05-17 19:30:00,
2013-05-17 15:38:00,71.3,42.0,30.04,West,273,0.0,9.0,35,0.00,,,0.00,weatherlink.com 1.10,2013-05-17 19:38:00,
2013-05-17 15:50:00,71.5,43.8,30.04,ENE,65,0.0,1.0,37,0.00,,,0.00,Wunderground v.1.15,2013-05-17 19:50:00,
2013-05-17 16:00:00,71.2,42.9,30.04,West,261,1.0,1.0,36,0.00,,,0.00,Wunderground v.1.15,2013-05-17 20:00:00,
2013-05-17 16:09:00,71.5,43.0,30.04,West,281,0.0,5.0,36,0.00,,,0.00,weatherlink.com 1.10,2013-05-17 20:09:00,
2013-05-17 16:20:00,72.5,44.0,30.04,West,266,1.0,1.0,36,0.00,,,0.00,Wunderground v.1.15,2013-05-17 20:20:00,
2013-05-17 16:30:00,72.8,43.5,30.04,West,268,0.0,0.0,35,0.00,,,0.00,Wunderground v.1.15,2013-05-17 20:30:00,
2013-05-17 16:39:00,72.6,46.0,30.04,West,269,0.0,1.0,39,0.00,,,0.00,weatherlink.com 1.10,2013-05-17 20:39:00,
2013-05-17 16:50:00,73.0,45.2,30.05,SE,126,0.0,1.0,37,0.00,,,0.00,Wunderground v.1.15,2013-05-17 20:50:00,
2013-05-17 17:00:00,71.7,45.4,30.05,NE,39,1.0,1.0,39,0.00,,,0.00,Wunderground v.1.15,2013-05-17 21:00:00,
2013-05-17 17:10:00,71.1,45.0,30.05,NNE,33,2.0,4.0,39,0.00,,,0.00,weatherlink.com 1.10,2013-05-17 21:10:00,
2013-05-17 17:20:00,70.5,45.0,30.05,NE,38,1.0,1.0,40,0.00,,,0.00,Wunderground v.1.15,2013-05-17 21:20:00,
2013-05-17 17:30:00,70.5,45.0,30.06,NNE,32,0.0,0.0,40,0.00,,,0.00,Wunderground v.1.15,2013-05-17 21:30:00,
2013-05-17 17:39:00,70.5,46.0,30.06,East,96,3.0,5.0,41,0.00,,,0.00,weatherlink.com 1.10,2013-05-17 21:39:00,
2013-05-17 17:50:00,70.6,45.7,30.06,ENE,75,0.0,0.0,41,0.00,,,0.00,Wunderground v.1.15,2013-05-17 21:50:00,
2013-05-17 17:56:00,70.7,47.0,30.06,East,98,0.0,5.0,43,0.00,,,0.00,weatherlink.com 1.10,2013-05-17 21:56:00,
2013-05-17 18:10:00,70.6,46.0,30.07,ESE,104,0.0,2.0,41,0.00,,,0.00,weatherlink.com 1.10,2013-05-17 22:10:00,
2013-05-17 18:20:00,70.6,45.7,30.07,ENE,71,0.0,0.0,41,0.00,,,0.00,Wunderground v.1.15,2013-05-17 22:20:00,
2013-05-17 18:25:00,70.5,46.0,30.07,ENE,72,0.0,1.0,41,0.00,,,0.00,weatherlink.com 1.10,2013-05-17 22:25:00,
2013-05-17 18:40:00,69.6,44.8,30.07,ENE,71,0.0,0.0,41,0.00,,,0.00,Wunderground v.1.15,2013-05-17 22:40:00,
2013-05-17 18:50:00,69.0,44.3,30.07,ENE,71,0.0,0.0,41,0.00,,,0.00,Wunderground v.1.15,2013-05-17 22:50:00,
2013-05-17 18:55:00,68.7,44.0,30.07,ENE,70,0.0,2.0,41,0.00,,,0.00,weatherlink.com 1.10,2013-05-17 22:55:00,
2013-05-17 19:00:00,68.6,44.6,30.08,ENE,69,0.0,0.0,42,0.00,,,0.00,Wunderground v.1.15,2013-05-17 23:00:00,
2013-05-17 19:10:00,68.3,44.3,30.08,ENE,69,0.0,0.0,42,0.00,,,0.00,Wunderground v.1.15,2013-05-17 23:10:00,
2013-05-17 19:20:00,68.0,44.7,30.08,ENE,69,0.0,0.0,43,0.00,,,0.00,Wunderground v.1.15,2013-05-17 23:20:00,
2013-05-17 19:25:00,67.7,45.0,30.09,ENE,69,0.0,1.0,44,0.00,,,0.00,weatherlink.com 1.10,2013-05-17 23:25:00,
2013-05-17 19:39:00,67.2,45.0,30.10,ENE,68,0.0,1.0,45,0.00,,,0.00,weatherlink.com 1.10,2013-05-17 23:39:00,
2013-05-17 19:50:00,66.8,45.3,30.10,ENE,68,0.0,0.0,46,0.00,,,0.00,Wunderground v.1.15,2013-05-17 23:50:00,
2013-05-17 19:55:00,66.5,45.0,30.10,ENE,68,0.0,1.0,47,0.00,,,0.00,weatherlink.com 1.10,2013-05-17 23:55:00,
2013-05-17 20:10:00,65.7,45.0,30.11,ENE,68,0.0,0.0,48,0.00,,,0.00,weatherlink.com 1.10,2013-05-18 00:10:00,
2013-05-17 20:20:00,65.1,45.5,30.12,ENE,68,0.0,0.0,49,0.00,,,0.00,Wunderground v.1.15,2013-05-18 00:20:00,
2013-05-17 20:26:00,64.7,45.0,30.12,ENE,68,0.0,1.0,49,0.00,,,0.00,weatherlink.com 1.10,2013-05-18 00:26:00,
2013-05-17 20:40:00,63.9,45.4,30.13,ENE,68,0.0,0.0,51,0.00,,,0.00,Wunderground v.1.15,2013-05-18 00:40:00,
2013-05-17 20:50:00,63.5,46.6,30.13,ENE,68,0.0,0.0,54,0.00,,,0.00,Wunderground v.1.15,2013-05-18 00:50:00,
2013-05-17 20:55:00,63.1,46.0,30.14,ENE,68,0.0,0.0,55,0.00,,,0.00,weatherlink.com 1.10,2013-05-18 00:55:00,
2013-05-17 21:10:00,62.0,46.6,30.14,ENE,68,0.0,0.0,57,0.00,,,0.00,Wunderground v.1.15,2013-05-18 01:10:00,
2013-05-17 21:20:00,61.3,46.4,30.14,ENE,68,0.0,0.0,58,0.00,,,0.00,Wunderground v.1.15,2013-05-18 01:20:00,
2013-05-17 21:25:00,60.9,45.0,30.15,ENE,68,0.0,0.0,57,0.00,,,0.00,weatherlink.com 1.10,2013-05-18 01:25:00,
2013-05-17 21:40:00,60.1,45.3,30.15,ENE,68,0.0,0.0,58,0.00,,,0.00,Wunderground v.1.15,2013-05-18 01:40:00,
2013-05-17 21:50:00,59.7,44.9,30.16,ENE,68,0.0,0.0,58,0.00,,,0.00,Wunderground v.1.15,2013-05-18 01:50:00,
2013-05-17 21:55:00,59.4,44.0,30.16,ENE,68,0.0,0.0,58,0.00,,,0.00,weatherlink.com 1.10,2013-05-18 01:55:00,
2013-05-17 22:00:00,59.2,44.4,30.16,ENE,68,0.0,0.0,58,0.00,,,0.00,Wunderground v.1.15,2013-05-18 02:00:00,
2013-05-17 22:10:00,58.7,45.3,30.16,ENE,68,0.0,0.0,61,0.00,,,0.00,Wunderground v.1.15,2013-05-18 02:10:00,
2013-05-17 22:20:00,58.0,46.7,30.16,ENE,68,0.0,0.0,66,0.00,,,0.00,Wunderground v.1.15,2013-05-18 02:20:00,
2013-05-17 22:27:00,57.6,47.0,30.16,ENE,68,0.0,1.0,68,0.00,,,0.00,weatherlink.com 1.10,2013-05-18 02:27:00,
2013-05-17 22:40:00,57.2,45.5,30.17,ENE,68,0.0,0.0,65,0.00,,,0.00,Wunderground v.1.15,2013-05-18 02:40:00,
2013-05-17 22:50:00,57.4,45.3,30.16,ENE,68,0.0,0.0,64,0.00,,,0.00,Wunderground v.1.15,2013-05-18 02:50:00,
2013-05-17 22:56:00,57.3,45.0,30.17,ENE,68,0.0,0.0,64,0.00,,,0.00,weatherlink.com 1.10,2013-05-18 02:56:00,
2013-05-17 23:10:00,57.2,45.5,30.18,ENE,68,0.0,0.0,65,0.00,,,0.00,Wunderground v.1.15,2013-05-18 03:10:00,
2013-05-17 23:20:00,56.8,45.2,30.17,ENE,68,0.0,0.0,65,0.00,,,0.00,Wunderground v.1.15,2013-05-18 03:20:00,
2013-05-17 23:27:00,56.6,47.0,30.18,ENE,68,0.0,0.0,70,0.00,,,0.00,weatherlink.com 1.10,2013-05-18 03:27:00,
2013-05-17 23:40:00,55.4,45.0,30.18,ENE,68,0.0,0.0,68,0.00,,,0.00,Wunderground v.1.15,2013-05-18 03:40:00,
2013-05-17 23:50:00,55.2,45.2,30.18,ENE,68,0.0,0.0,69,0.00,,,0.00,Wunderground v.1.15,2013-05-18 03:50:00,
2013-05-17 23:57:00,54.9,45.0,30.18,ENE,68,0.0,0.0,69,0.00,,,0.00,weatherlink.com 1.10,2013-05-18 03:57:00,